Regional Weather Roundup
Issued by NWS Upton, NY

Current Version | Previous Version | Text Only | Print | Product List | Glossary On
Versions: 1 2 3 4 5 6 7 8 9 10 11 12 13 14 15 16 17 18 19 20 21 22 23 24 25 26 27 28 29 30 31 32 33 34 35 36 37 38 39 40 41 42 43 44 45 46 47 48 49 50
000
ASUS41 KOKX 020204
RWROKX

REGIONAL WEATHER ROUNDUP
NATIONAL WEATHER SERVICE NEW YORK NY
1000 PM EDT SAT AUG 01 2015

NOTE: "FAIR" INDICATES FEW OR NO CLOUDS BELOW 12,000 FEET WITH NO
SIGNIFICANT WEATHER AND/OR OBSTRUCTIONS TO VISIBILITY.

NYZ071-072-176-178-NJZ106-104-020300-
NEW YORK CITY METRO AREA


CITY           SKY/WX    TMP DP  RH WIND       PRES   REMARKS
CENTRAL PARK   CLEAR     81  56  42 W3        29.87R
LAGUARDIA APRT PTCLDY    81  58  45 NW9       29.84R
KENNEDY INTL   CLEAR     83  56  39 NW9       29.85R
NEWARK/LIBERTY PTCLDY    80  59  48 W7        29.85R
BRNX BOT. GARD   N/A     79  55  44 W7        29.87R
TETERBORO      CLEAR     77  54  44 W5        29.83R
$$

NYZ177-179-078>081-020300-
LONG ISLAND NEW YORK

CITY           SKY/WX    TMP DP  RH WIND       PRES   REMARKS
FARMINGDALE    CLEAR     80  57  45 W3        29.84R
ISLIP          PTCLDY    76  59  55 NW6       29.82R
SHIRLEY        CLEAR     74  60  61 CALM      29.84R
WESTHAMPTON    CLEAR     68  64  87 CALM      29.85R
MONTAUK POINT    N/A     77  68  73 SW6       29.83R
$$

NYZ052-065-067-020300-
HUDSON VALLEY

CITY           SKY/WX    TMP DP  RH WIND       PRES   REMARKS
WHITE PLAINS   CLEAR     74  58  57 NW6       29.85R
NEWBURGH       CLEAR     72  59  64 W6        29.86R
MONTGOMERY     CLEAR     68  60  75 CALM      29.85R
POUGHKEEPSIE   CLEAR     69  58  67 CALM      29.83R
ALBANY         CLEAR     72  54  53 CALM      29.85R
$$

NJZ001-105-106-008-010-013-015-019>022-104-020300-
NEW JERSEY

CITY           SKY/WX    TMP DP  RH WIND       PRES   REMARKS
NEWARK/LIBERTY PTCLDY    80  59  48 W7        29.85R
TETERBORO      CLEAR     77  54  44 W5        29.83R
CALDWELL       CLEAR     75  57  53 SW3       29.86R
MORRISTOWN     NOT AVBL
SOMERVILLE     CLEAR     70  59  68 CALM      29.84R
SUSSEX         PTCLDY    70  56  61 CALM      29.87R
ANDOVER          N/A     65  64  97 CALM      29.89R
TRENTON        CLEAR     76  57  51 SW5       29.85R
MILLVILLE      CLOUDY    74  65  73 CALM      29.87R
ATLANTIC CITY  PTCLDY    78  63  59 CALM      29.87R
WRIGHTSTOWN    NOT AVBL
TOMS RIVER       N/A     70  63  78 CALM      29.87R
BELMAR         CLEAR     75  55  50 NW7       29.86R
$$

PAZ047>061-062-071-020300-
EASTERN PENNSYLVANIA

CITY           SKY/WX    TMP DP  RH WIND       PRES   REMARKS
PHILADELPHIA   PTCLDY    83  59  44 NW8       29.87R
ALLENTOWN      CLOUDY    75  60  59 W3        29.87R
SCRANTON       CLEAR     63  59  87 SE5       29.90R
$$

CTZ002-004>006-009-010-012-RIZ004-006-007-MAZ004-011-015-020300-
SOUTHERN NEW ENGLAND
 IN CT

CITY           SKY/WX    TMP DP  RH WIND       PRES   REMARKS
BRADLEY INTL   PTCLDY    73  59  61 NW6       29.82R
HARTFORD       CLEAR     73  67  81 CALM      29.82R
DANBURY        CLEAR     68  60  75 CALM      29.86R
WTRBRY/OXFORD  CLEAR     72  57  60 CALM      29.87R
BRIDGEPORT     MOCLDY    80  59  48 W10       29.82R
MERIDEN        CLEAR     69  65  86 CALM      29.83R
NEW HAVEN      PTCLDY    72  60  66 CALM      29.83R
CHESTER        FAIR      73  63  68 W5        29.84R
GROTON         CLEAR     70  64  81 CALM      29.81R
WILLIMANTIC    CLEAR     70  64  81 CALM      29.82R

 IN RI

CITY           SKY/WX    TMP DP  RH WIND       PRES   REMARKS
PROVIDENCE     PTCLDY    72  64  76 CALM      29.82R
BLOCK ISLAND     N/A     73  70  88 W10       29.83R
WESTERLY       PTCLDY    71  64  78 CALM      29.82R

 IN MA

CITY           SKY/WX    TMP DP  RH WIND       PRES   REMARKS
BOSTON         PTCLDY    78  60  53 W9        29.79R
WORCESTER      CLEAR     65  60  84 W8        29.85R
WESTFIELD      CLEAR     67  64  90 CALM      29.83R
PROVINCETOWN   PTCLDY    72  63  73 SW9       29.80R
NANTUCKET      CLEAR     73  70  90 W8        29.82R
$$

ANZ330-335-338-340-345-350-353-355-020300-
COASTAL MARINE OBSERVATIONS


STATION/POSITION TIME  SKY/WX   TEMP    WIND        PRES    VSBY  WAVE
                                AIR SEA DIR/SP/G                  HT/PER
                 (UTC)          (F)     (DEG/KT/KT) (MB)    (MI)  (FT/S)
NY HARB ENTRANCE 0050            78 77  290/  6/  8 1009.4          4/ 8
4S FIRE IS       NOT AVBL
20S FIRE ISLAND  0050            77 76  230/ 12/ 14 1009.2          4/ 9
GREAT SOUTH BAY  NOT AVBL
23SW MTP         0150            76 75  240/ 14/ 16 1009.6          4/ 8
HUDSON CANYON    NOT AVBL
KINGS POINT      0100            80 74  350/  5/  9 1009.0
EXECUTION ROCKS  0100            79     260/  4/  4   N/A
CENTRAL LI SOUND NOT AVBL
EASTERN LI SOUND 0100            72 69  200/  4/  6   N/A
ROBBINS REEF     0100            82     280/  8/ 10 1008.8
$$


>>>>>>>>>>>>>>>>>>>>>>>>>>>> KEY <<<<<<<<<<<<<<<<<<<<<<<<<<<
>                                                          <
>     SKY/WX - SKY CONDITION/PRESENT WEATHER               <
>     TMP    - TEMPERATURE IN FAHRENHEIT                   <
>     DP     - DEWPOINT IN FAHRENHEIT                      <
>     RH     - RELATIVE HUMIDITY IN PERCENT                <
>     WIND   - DIRECTION AND SPEED IN MPH                  <
>     PRES   - MEAN SEA LEVEL PRESSURE IN INCHES OF HG     <
>     WCI    - WIND CHILL INDEX                            <
>     VSB    - VISIBILITY IN MILES                         <
>     HX     - HEAT INDEX                                  <
>     TC     - TEMPERATURE IN CELSIUS                      <
>     VRB    - VARIABLE WIND DIRECTION                     <
>                                                          <
>>>>>>>>>>>>>>>>>>>>>>>>>>>> KEY <<<<<<<<<<<<<<<<<<<<<<<<<<<





USA.gov is the U.S. government's official web portal to all federal, state and local government web resources and services.